Satellite-Ground Cal/Val Site Overpasses Predictions

Prediction of Satellite NPP Overpassing Cal/Val Site: Antarctic Dome C

Ground Cal/Val Site Location: Latitude: -75.10, Longitude: 123.35; Satellite-Ground Site NADIR distance within 100 km.

Table of predicted overpasses for the next 14.0 days since TLE Epoch: 1/11/2019
Interval Starting Time Ending Time Minimum Distance Time Minimum Distance (km)
1 01/13/2019 15:07:58 01/13/2019 15:08:04 01/13/2019 15:08:01 97.63
2 01/14/2019 14:48:55 01/14/2019 14:49:24 01/14/2019 14:49:10 13.73
3 01/16/2019 07:31:45 01/16/2019 07:32:14 01/16/2019 07:32:00 2.97
4 01/19/2019 14:55:11 01/19/2019 14:55:39 01/19/2019 14:55:25 22.69
5 01/20/2019 14:36:29 01/20/2019 14:36:44 01/20/2019 14:36:36 84.45
6 01/21/2019 07:38:00 01/21/2019 07:38:27 01/21/2019 07:38:14 38.61
7 01/22/2019 07:19:14 01/22/2019 07:19:35 01/22/2019 07:19:24 71.33
8 01/24/2019 15:01:29 01/24/2019 15:01:52 01/24/2019 15:01:40 59.78


NCC Satellite Cal/Val Overpasses Prediction Service
